Location: Gloden
(48.4833°N, 15.3167°E)
Time: 18:16:05
(UTC+00:00)

Cosmos 1378 Rocket - Pass Details

Date: 15 December 2019
Orbit: 602 x 626 km, 82.5° (Epoch: 20 January)

Event Time Altitude Azimuth Distance (km) Brightness Sun altitude
Exits shadow 04:55:01 - 351° (N) 2,328 6.3 -17.0°
Reaches altitude 10° 04:55:49 10° 351° (N) 2,004 5.9 -16.8°
Maximum altitude 05:00:16 85° 78° (ENE) 634 3.6 -16.1°
Drops below altitude 10° 05:04:42 10° 170° (S) 1,996 6.5 -15.4°
Sets 05:06:56 0° 171° (S) 2,900 7.4 -15.1°
